SBI3061 UUDD-UHBB

Flight info

Callsign SBI3061
Flight time N/A
Altitude 37000
Route K0848F370 OLMUN4N OLMUN T629 IPSIL T830 LAMGU N604 HMN L870 PTG P138 DERUT/K0854F390 P138 LANAP W24 BIMTA N746 GU G229 UDRIL N620 BADOM M160 RUNET RUNET2X
Aircraft A20N/M-SDE2E3FGHIRWXY/LB1

Departure

Time N/A
Airport Domodedovo International Airport (UUDD)

Arrival

Time 2026-04-18 19:46
Airport Ignatyevo Airport (UHBB)
Time Latitude Longitude Altitude Speed Heading
2026-04-18 14:46 59.63939 59.61448 37150 ft 506 kts 76°
2026-04-18 14:46 59.64642 59.68266 37155 ft 506 kts 76°
2026-04-18 14:47 59.66037 59.81915 37158 ft 506 kts 76°
2026-04-18 14:47 59.67418 59.95585 37173 ft 506 kts 76°
2026-04-18 14:48 59.68785 60.09254 37142 ft 506 kts 76°
2026-04-18 14:48 59.70130 60.22856 37150 ft 507 kts 76°
2026-04-18 14:49 59.71468 60.36554 37152 ft 507 kts 76°
2026-04-18 14:49 59.72793 60.50274 37150 ft 507 kts 76°
2026-04-18 14:50 59.74105 60.64016 37160 ft 507 kts 76°
2026-04-18 14:50 59.75400 60.77730 37163 ft 506 kts 77°
2026-04-18 14:51 59.76681 60.91469 37157 ft 506 kts 77°
2026-04-18 14:51 59.77947 61.05211 37160 ft 506 kts 77°
2026-04-18 14:52 59.79201 61.18978 37155 ft 506 kts 77°
2026-04-18 14:52 59.80438 61.32744 37158 ft 506 kts 77°
2026-04-18 14:53 59.81654 61.46440 37155 ft 506 kts 77°
2026-04-18 14:53 59.82871 61.60319 37164 ft 506 kts 77°
2026-04-18 14:54 59.84059 61.74030 37166 ft 506 kts 77°
2026-04-18 14:54 59.85239 61.87835 37170 ft 506 kts 77°
2026-04-18 14:55 59.86406 62.01664 37168 ft 506 kts 78°
2026-04-18 14:55 59.87558 62.15500 37179 ft 506 kts 78°
2026-04-18 14:56 59.88697 62.29355 37178 ft 507 kts 78°
2026-04-18 14:56 59.89824 62.43229 37179 ft 508 kts 78°
2026-04-18 14:57 59.90942 62.57035 37172 ft 508 kts 78°
2026-04-18 14:57 59.92065 62.71026 37179 ft 508 kts 78°
2026-04-18 14:58 59.93159 62.84867 37178 ft 509 kts 78°
2026-04-18 14:58 59.94247 62.98830 37181 ft 509 kts 79°
2026-04-18 14:59 59.95318 63.12781 37181 ft 509 kts 79°
2026-04-18 14:59 59.96374 63.26746 37184 ft 509 kts 79°
2026-04-18 15:00 59.97416 63.40725 37188 ft 509 kts 79°
2026-04-18 15:00 59.98443 63.54708 37194 ft 509 kts 79°
2026-04-18 15:01 59.99455 63.68694 37188 ft 509 kts 79°
2026-04-18 15:01 60.00452 63.82694 37186 ft 509 kts 79°
2026-04-18 15:02 60.01557 63.96650 37227 ft 507 kts 75°
2026-04-18 15:02 60.03122 64.10398 37190 ft 507 kts 73°
2026-04-18 15:03 60.04756 64.24020 37195 ft 507 kts 73°
2026-04-18 15:03 60.06404 64.37733 37194 ft 507 kts 73°
2026-04-18 15:04 60.08031 64.51469 37195 ft 507 kts 73°
2026-04-18 15:04 60.09639 64.65223 37204 ft 507 kts 73°
2026-04-18 15:05 60.11252 64.78985 37194 ft 506 kts 70°
2026-04-18 15:05 60.13804 64.92042 37193 ft 503 kts 62°
2026-04-18 15:06 60.16728 65.04794 37200 ft 501 kts 60°
2026-04-18 15:06 60.19705 65.17440 37200 ft 501 kts 60°
2026-04-18 15:07 60.22667 65.30120 37206 ft 501 kts 61°
2026-04-18 15:07 60.25603 65.42836 37204 ft 500 kts 61°
2026-04-18 15:08 60.28520 65.55577 37200 ft 500 kts 61°
2026-04-18 15:08 60.31404 65.68258 37200 ft 501 kts 61°
2026-04-18 15:09 60.34292 65.81031 37235 ft 501 kts 61°
2026-04-18 15:09 60.37174 65.93850 37195 ft 500 kts 61°
2026-04-18 15:10 60.40037 66.06662 37195 ft 500 kts 62°
2026-04-18 15:10 60.42887 66.19494 37195 ft 500 kts 62°
2026-04-18 15:11 60.45728 66.32364 37201 ft 500 kts 62°
2026-04-18 15:11 60.48078 66.43067 37213 ft 500 kts 62°
2026-04-18 15:12 60.50896 66.55976 37201 ft 500 kts 62°
2026-04-18 15:12 60.53698 66.68894 37199 ft 500 kts 62°
2026-04-18 15:13 60.56490 66.81843 37200 ft 500 kts 62°
2026-04-18 15:13 60.59268 66.94819 37198 ft 500 kts 62°
2026-04-18 15:14 60.62033 67.07811 37203 ft 500 kts 62°
2026-04-18 15:14 60.64781 67.20803 37198 ft 500 kts 63°
2026-04-18 15:15 60.68884 67.40343 37199 ft 500 kts 63°
2026-04-18 15:15 60.71605 67.53404 37199 ft 500 kts 63°
2026-04-18 15:16 60.74295 67.66504 37209 ft 500 kts 63°
2026-04-18 15:16 60.76963 67.79652 37204 ft 500 kts 63°
2026-04-18 15:17 60.79615 67.92809 37214 ft 500 kts 63°
2026-04-18 15:17 60.82240 68.05908 37205 ft 500 kts 64°
2026-04-18 15:18 60.84874 68.19126 37205 ft 500 kts 64°
2026-04-18 15:18 60.87497 68.32338 37198 ft 500 kts 64°
2026-04-18 15:19 60.90137 68.45549 37195 ft 500 kts 63°
2026-04-18 15:19 60.92775 68.58790 37189 ft 500 kts 64°
2026-04-18 15:20 60.95392 68.72028 37186 ft 500 kts 64°
2026-04-18 15:20 60.97999 68.85319 37201 ft 500 kts 64°
2026-04-18 15:21 61.00593 68.98634 37186 ft 500 kts 64°
2026-04-18 15:21 61.03067 69.11955 37184 ft 503 kts 70°
2026-04-18 15:22 61.04817 69.25966 37184 ft 505 kts 73°
2026-04-18 15:22 61.06394 69.40109 37189 ft 505 kts 74°
2026-04-18 15:23 61.07922 69.54283 37213 ft 505 kts 74°
2026-04-18 15:23 61.09442 69.68456 37188 ft 505 kts 74°
2026-04-18 15:24 61.10948 69.82549 37192 ft 505 kts 74°
2026-04-18 15:24 61.12451 69.96730 37189 ft 505 kts 74°
2026-04-18 15:25 61.13917 70.10939 37189 ft 505 kts 75°
2026-04-18 15:25 61.15313 70.25209 37196 ft 505 kts 75°
2026-04-18 15:26 61.16681 70.39451 37186 ft 504 kts 76°
2026-04-18 15:26 61.18042 70.53728 37184 ft 504 kts 76°
2026-04-18 15:27 61.19390 70.67985 37184 ft 504 kts 76°
2026-04-18 15:27 61.20725 70.82266 37181 ft 504 kts 76°
2026-04-18 15:28 61.22038 70.96551 37182 ft 504 kts 76°
2026-04-18 15:28 61.23294 71.10770 37178 ft 504 kts 77°
2026-04-18 15:29 61.24531 71.25081 37178 ft 504 kts 77°
2026-04-18 15:29 61.25763 71.39492 37176 ft 504 kts 77°
2026-04-18 15:30 61.26966 71.53731 37178 ft 504 kts 77°
2026-04-18 15:30 61.28166 71.68104 37171 ft 505 kts 77°
2026-04-18 15:31 61.29351 71.82484 37168 ft 505 kts 77°
2026-04-18 15:31 61.30525 71.96920 37162 ft 505 kts 77°
2026-04-18 15:32 61.31705 72.11336 37162 ft 505 kts 76°
2026-04-18 15:32 61.33019 72.25630 37186 ft 505 kts 76°
2026-04-18 15:33 61.34373 72.39972 37157 ft 503 kts 76°
2026-04-18 15:33 61.35698 72.54297 37156 ft 503 kts 76°
2026-04-18 15:34 61.36995 72.68628 37148 ft 503 kts 76°
2026-04-18 15:34 61.38274 72.82998 37148 ft 503 kts 76°
2026-04-18 15:35 61.39539 72.97372 37145 ft 503 kts 77°
2026-04-18 15:35 61.40789 73.11745 37135 ft 503 kts 77°
2026-04-18 15:36 61.42024 73.26122 37160 ft 503 kts 77°
2026-04-18 15:36 61.43243 73.40501 37155 ft 503 kts 77°
2026-04-18 15:37 61.44448 73.54915 37161 ft 503 kts 77°
2026-04-18 15:37 61.45637 73.69324 37161 ft 503 kts 77°
2026-04-18 15:38 61.46808 73.83721 37143 ft 502 kts 77°
2026-04-18 15:38 61.47965 73.98131 37134 ft 502 kts 78°
2026-04-18 15:39 61.49100 74.12465 37128 ft 502 kts 78°
2026-04-18 15:39 61.50213 74.26894 37131 ft 503 kts 79°
2026-04-18 15:40 61.51166 74.41400 37120 ft 503 kts 80°
2026-04-18 15:40 61.52045 74.55919 37119 ft 502 kts 80°
2026-04-18 15:41 61.52917 74.70449 37115 ft 502 kts 80°
2026-04-18 15:41 61.53786 74.84968 37116 ft 502 kts 80°
2026-04-18 15:42 61.54646 74.99520 37111 ft 502 kts 80°
2026-04-18 15:42 61.55490 75.14053 37111 ft 502 kts 81°
2026-04-18 15:43 61.56318 75.28612 37111 ft 502 kts 81°
2026-04-18 15:43 61.57132 75.43189 37110 ft 502 kts 81°
2026-04-18 15:44 61.57927 75.57740 37107 ft 502 kts 81°
2026-04-18 15:44 61.58710 75.72334 37122 ft 503 kts 81°
2026-04-18 15:45 61.59475 75.86913 37101 ft 502 kts 81°
2026-04-18 15:45 61.60226 76.01515 37103 ft 502 kts 81°
2026-04-18 15:46 61.60961 76.16118 37105 ft 502 kts 82°
2026-04-18 15:46 61.61679 76.30696 37097 ft 502 kts 82°
2026-04-18 15:47 61.62377 76.45203 37128 ft 502 kts 82°
2026-04-18 15:47 61.63064 76.59801 37095 ft 501 kts 82°
2026-04-18 15:48 61.63735 76.74382 37088 ft 501 kts 82°
2026-04-18 15:48 61.64390 76.88964 37082 ft 501 kts 82°
2026-04-18 15:49 61.65030 77.03581 37082 ft 501 kts 82°
2026-04-18 15:49 61.65655 77.18204 37097 ft 501 kts 83°
2026-04-18 15:50 61.66264 77.32828 37083 ft 501 kts 83°
2026-04-18 15:50 61.66851 77.47425 37084 ft 501 kts 83°
2026-04-18 15:51 61.67384 77.62053 37080 ft 501 kts 83°
2026-04-18 15:51 61.67886 77.76673 37077 ft 501 kts 84°
2026-04-18 15:52 61.68385 77.91224 37083 ft 501 kts 84°
2026-04-18 15:52 61.68895 78.05846 37077 ft 500 kts 84°
2026-04-18 15:53 61.69393 78.20454 37080 ft 500 kts 84°
2026-04-18 15:53 61.69873 78.35080 37080 ft 500 kts 84°
2026-04-18 15:54 61.70336 78.49695 37080 ft 500 kts 84°
2026-04-18 15:54 61.70784 78.64338 37080 ft 500 kts 84°
2026-04-18 15:55 61.71215 78.78961 37080 ft 500 kts 84°
2026-04-18 15:55 61.71630 78.93569 37072 ft 500 kts 84°
2026-04-18 15:56 61.72028 79.08108 37073 ft 499 kts 85°
2026-04-18 15:56 61.72413 79.22732 37069 ft 500 kts 85°
2026-04-18 15:57 61.72783 79.37416 37069 ft 501 kts 85°
2026-04-18 15:57 61.73136 79.52043 37069 ft 499 kts 85°
2026-04-18 15:58 61.73417 79.64205 37069 ft 499 kts 85°
2026-04-18 15:58 61.73742 79.78828 37069 ft 499 kts 85°
2026-04-18 15:59 61.74051 79.93444 37070 ft 499 kts 85°
2026-04-18 15:59 61.74344 80.08061 37074 ft 498 kts 86°
2026-04-18 16:00 61.74621 80.22677 37076 ft 498 kts 86°
2026-04-18 16:00 61.74883 80.37298 37075 ft 498 kts 86°
2026-04-18 16:01 61.75129 80.51914 37074 ft 498 kts 86°
2026-04-18 16:01 61.75358 80.66435 37073 ft 498 kts 86°
2026-04-18 16:02 61.75574 80.81050 37072 ft 498 kts 86°
2026-04-18 16:02 61.75773 80.95680 37075 ft 497 kts 86°
2026-04-18 16:03 61.75957 81.10286 37073 ft 497 kts 87°
2026-04-18 16:03 61.76126 81.24899 37078 ft 498 kts 87°
2026-04-18 16:04 61.76278 81.39502 37080 ft 498 kts 87°
2026-04-18 16:04 61.76416 81.54108 37088 ft 497 kts 87°
2026-04-18 16:05 61.76537 81.68701 37085 ft 497 kts 88°
2026-04-18 16:05 61.76643 81.83190 37079 ft 497 kts 88°
2026-04-18 16:06 61.76733 81.97781 37079 ft 497 kts 88°
2026-04-18 16:06 61.76809 82.12386 37082 ft 497 kts 88°
2026-04-18 16:07 61.76869 82.26986 37082 ft 497 kts 88°
2026-04-18 16:07 61.76913 82.41569 37092 ft 497 kts 88°
2026-04-18 16:08 61.76942 82.56175 37087 ft 497 kts 88°
2026-04-18 16:08 61.76955 82.70778 37088 ft 497 kts 88°
2026-04-18 16:09 61.76953 82.85370 37100 ft 497 kts 89°
2026-04-18 16:09 61.76936 82.99847 37089 ft 496 kts 89°
2026-04-18 16:10 61.76904 83.14423 37096 ft 496 kts 89°
2026-04-18 16:10 61.76856 83.28987 37098 ft 496 kts 89°
2026-04-18 16:11 61.76793 83.43573 37087 ft 497 kts 89°
2026-04-18 16:11 61.76720 83.58212 37096 ft 498 kts 89°
2026-04-18 16:12 61.76664 83.72822 37092 ft 497 kts 89°
2026-04-18 16:12 61.76604 83.87407 37092 ft 497 kts 89°
2026-04-18 16:13 61.76527 84.01995 37105 ft 497 kts 89°
2026-04-18 16:13 61.76432 84.16484 37097 ft 497 kts 89°
2026-04-18 16:14 61.76320 84.31075 37113 ft 497 kts 90°
2026-04-18 16:14 61.76192 84.45661 37097 ft 496 kts 90°
2026-04-18 16:15 61.75973 84.67500 37099 ft 496 kts 90°
2026-04-18 16:16 61.75807 84.82061 37112 ft 496 kts 90°
2026-04-18 16:16 61.75626 84.96614 37104 ft 496 kts 90°
2026-04-18 16:17 61.75431 85.11069 37108 ft 495 kts 90°
2026-04-18 16:17 61.75219 85.25597 37108 ft 495 kts 90°
2026-04-18 16:18 61.74993 85.40104 37109 ft 495 kts 91°
2026-04-18 16:18 61.74750 85.54624 37113 ft 495 kts 91°
2026-04-18 16:19 61.74493 85.69143 37115 ft 495 kts 91°
2026-04-18 16:19 61.74220 85.83644 37115 ft 494 kts 91°
2026-04-18 16:20 61.73933 85.98124 37115 ft 493 kts 91°
2026-04-18 16:20 61.73631 86.12576 37119 ft 493 kts 91°
2026-04-18 16:21 61.73313 86.27045 37119 ft 493 kts 91°
2026-04-18 16:21 61.72980 86.41526 37121 ft 493 kts 92°
2026-04-18 16:22 61.72634 86.55880 37122 ft 493 kts 92°
2026-04-18 16:22 61.72271 86.70309 37124 ft 492 kts 92°
2026-04-18 16:23 61.71894 86.84719 37124 ft 492 kts 92°
2026-04-18 16:23 61.71299 87.06362 37129 ft 492 kts 92°
2026-04-18 16:24 61.70883 87.20780 37133 ft 492 kts 92°
2026-04-18 16:24 61.70453 87.35177 37129 ft 491 kts 92°
2026-04-18 16:25 61.70008 87.49555 37132 ft 491 kts 93°
2026-04-18 16:25 61.69547 87.63916 37132 ft 491 kts 93°
2026-04-18 16:26 61.69071 87.78276 37135 ft 491 kts 93°
2026-04-18 16:26 61.68578 87.92650 37139 ft 491 kts 93°
2026-04-18 16:27 61.68076 88.06882 37134 ft 491 kts 93°
2026-04-18 16:27 61.67554 88.21215 37134 ft 491 kts 94°
2026-04-18 16:28 61.67018 88.35553 37141 ft 491 kts 94°
2026-04-18 16:28 61.66468 88.49869 37137 ft 491 kts 94°
2026-04-18 16:29 61.65901 88.64192 37138 ft 491 kts 94°
2026-04-18 16:29 61.65321 88.78499 37137 ft 491 kts 94°
2026-04-18 16:30 61.64726 88.92802 37139 ft 491 kts 94°
2026-04-18 16:30 61.64118 89.07107 37140 ft 491 kts 94°
2026-04-18 16:31 61.63516 89.21417 37137 ft 491 kts 94°
2026-04-18 16:31 61.62906 89.35699 37116 ft 491 kts 94°
2026-04-18 16:32 61.62279 89.49995 37134 ft 492 kts 94°
2026-04-18 16:32 61.61638 89.64224 37136 ft 492 kts 94°
2026-04-18 16:33 61.60978 89.78539 37138 ft 492 kts 95°
2026-04-18 16:33 61.60303 89.92861 37137 ft 492 kts 95°
2026-04-18 16:34 61.59595 90.07175 37138 ft 492 kts 95°
2026-04-18 16:34 61.58818 90.21465 37136 ft 493 kts 96°
2026-04-18 16:35 61.58012 90.35771 37140 ft 493 kts 96°
2026-04-18 16:35 61.57196 90.50082 37140 ft 493 kts 96°
2026-04-18 16:36 61.56371 90.64364 37143 ft 493 kts 96°
2026-04-18 16:36 61.55531 90.78645 37143 ft 493 kts 96°
2026-04-18 16:37 61.54677 90.92918 37143 ft 493 kts 96°
2026-04-18 16:37 61.53815 91.07075 37144 ft 493 kts 96°
2026-04-18 16:38 61.52931 91.21318 37139 ft 493 kts 96°
2026-04-18 16:38 61.52032 91.35564 37140 ft 493 kts 97°
2026-04-18 16:39 61.51118 91.49799 37140 ft 493 kts 97°
2026-04-18 16:39 61.50191 91.64003 37141 ft 492 kts 97°
2026-04-18 16:40 61.49248 91.78213 37135 ft 492 kts 97°
2026-04-18 16:40 61.48298 91.92308 37135 ft 492 kts 97°
2026-04-18 16:41 61.46834 92.13597 37143 ft 493 kts 97°
2026-04-18 16:42 61.45840 92.27782 37133 ft 492 kts 97°
2026-04-18 16:42 61.44831 92.41946 37132 ft 492 kts 97°
2026-04-18 16:43 61.43809 92.56090 37127 ft 492 kts 98°
2026-04-18 16:43 61.42770 92.70244 37127 ft 493 kts 98°
2026-04-18 16:44 61.41717 92.84385 37136 ft 492 kts 98°
2026-04-18 16:44 61.40651 92.98500 37131 ft 491 kts 98°
2026-04-18 16:45 61.39579 93.12489 37130 ft 491 kts 98°
2026-04-18 16:45 61.38485 93.26566 37129 ft 491 kts 98°
2026-04-18 16:46 61.37377 93.40625 37125 ft 491 kts 98°
2026-04-18 16:46 61.36253 93.54691 37125 ft 491 kts 99°
2026-04-18 16:47 61.35117 93.68726 37119 ft 490 kts 99°
2026-04-18 16:47 61.33976 93.82632 37119 ft 490 kts 99°
2026-04-18 16:48 61.32812 93.96622 37114 ft 490 kts 99°
2026-04-18 16:48 61.31634 94.10608 37113 ft 490 kts 99°
2026-04-18 16:49 61.30441 94.24585 37107 ft 490 kts 99°
2026-04-18 16:49 61.29237 94.38526 37105 ft 489 kts 99°
2026-04-18 16:50 61.28217 94.50191 37098 ft 489 kts 99°
2026-04-18 16:50 61.26986 94.64106 37098 ft 489 kts 100°
2026-04-18 16:51 61.25748 94.77940 37096 ft 490 kts 100°
2026-04-18 16:51 61.24489 94.91834 37095 ft 489 kts 100°
2026-04-18 16:52 61.23215 95.05728 37097 ft 490 kts 100°
2026-04-18 16:52 61.21925 95.19630 37097 ft 490 kts 100°
2026-04-18 16:53 61.20621 95.33518 37092 ft 490 kts 101°
2026-04-18 16:53 61.19302 95.47398 37091 ft 490 kts 101°
2026-04-18 16:54 61.17969 95.61267 37089 ft 490 kts 101°
2026-04-18 16:54 61.16626 95.75081 37086 ft 489 kts 101°
2026-04-18 16:55 61.15278 95.88791 37082 ft 489 kts 101°
2026-04-18 16:55 61.13899 96.02665 37080 ft 489 kts 101°
2026-04-18 16:56 61.12524 96.16344 37078 ft 489 kts 101°
2026-04-18 16:56 61.11124 96.30119 37077 ft 489 kts 102°
2026-04-18 16:57 61.09711 96.43883 37074 ft 489 kts 102°
2026-04-18 16:57 61.08308 96.57653 37074 ft 489 kts 101°
2026-04-18 16:58 61.06912 96.71388 37073 ft 489 kts 102°
2026-04-18 16:58 61.05500 96.85133 37073 ft 489 kts 102°
2026-04-18 16:59 61.04083 96.98761 37072 ft 488 kts 102°
2026-04-18 16:59 61.02642 97.12450 37083 ft 488 kts 102°
2026-04-18 17:00 61.01189 97.26116 37084 ft 488 kts 102°
2026-04-18 17:00 60.99721 97.39774 37085 ft 488 kts 102°
2026-04-18 17:01 60.98240 97.53416 37083 ft 488 kts 102°
2026-04-18 17:01 60.96743 97.67063 37081 ft 488 kts 103°
2026-04-18 17:02 60.95238 97.80653 37083 ft 487 kts 103°
2026-04-18 17:02 60.93719 97.94229 37083 ft 487 kts 103°
2026-04-18 17:03 60.92196 98.07704 37086 ft 487 kts 103°
2026-04-18 17:03 60.90649 98.21263 37086 ft 487 kts 103°
2026-04-18 17:04 60.89088 98.34808 37089 ft 486 kts 104°
2026-04-18 17:04 60.87518 98.48296 37088 ft 486 kts 104°
2026-04-18 17:05 60.85935 98.61777 37094 ft 486 kts 104°
2026-04-18 17:05 60.84338 98.75240 37095 ft 486 kts 104°
2026-04-18 17:06 60.82728 98.88692 37097 ft 486 kts 104°
2026-04-18 17:06 60.81105 99.02129 37096 ft 485 kts 104°
2026-04-18 17:07 60.79478 99.15469 37100 ft 485 kts 104°
2026-04-18 17:07 60.77830 99.28859 37100 ft 485 kts 105°
2026-04-18 17:08 60.76168 99.42237 37106 ft 485 kts 105°
2026-04-18 17:08 60.74495 99.55594 37107 ft 485 kts 105°
2026-04-18 17:09 60.72806 99.68950 37108 ft 484 kts 105°
2026-04-18 17:09 60.71108 99.82265 37107 ft 484 kts 105°
2026-04-18 17:10 60.69396 99.95564 37110 ft 484 kts 105°
2026-04-18 17:10 60.67684 100.08756 37111 ft 484 kts 106°
2026-04-18 17:11 60.65948 100.22010 37113 ft 484 kts 106°
2026-04-18 17:11 60.64196 100.35273 37098 ft 483 kts 106°
2026-04-18 17:12 60.62434 100.48503 37113 ft 484 kts 106°
2026-04-18 17:12 60.60656 100.61735 37114 ft 484 kts 107°
2026-04-18 17:13 60.58866 100.74955 37119 ft 484 kts 107°
2026-04-18 17:13 60.57062 100.88155 37119 ft 484 kts 107°
2026-04-18 17:14 60.55245 101.01349 37123 ft 484 kts 107°
2026-04-18 17:14 60.53431 101.14411 37123 ft 483 kts 107°
2026-04-18 17:15 60.51590 101.27555 37126 ft 483 kts 107°
2026-04-18 17:15 60.49738 101.40676 37126 ft 483 kts 108°
2026-04-18 17:16 60.47874 101.53774 37133 ft 483 kts 108°
2026-04-18 17:16 60.45998 101.66853 37132 ft 482 kts 108°
2026-04-18 17:17 60.44114 101.79882 37134 ft 482 kts 108°
2026-04-18 17:17 60.42217 101.92898 37135 ft 482 kts 108°
2026-04-18 17:18 60.40308 102.05896 37137 ft 482 kts 108°
2026-04-18 17:18 60.38397 102.18801 37125 ft 482 kts 109°
2026-04-18 17:19 60.36472 102.31765 37140 ft 481 kts 109°
2026-04-18 17:19 60.34603 102.44725 37141 ft 480 kts 108°
2026-04-18 17:20 60.32747 102.57692 37140 ft 480 kts 108°
2026-04-18 17:20 60.30874 102.70649 37143 ft 480 kts 109°
2026-04-18 17:21 60.28982 102.83590 37144 ft 480 kts 109°
2026-04-18 17:21 60.27091 102.96416 37146 ft 480 kts 109°
2026-04-18 17:22 60.25179 103.09310 37143 ft 480 kts 109°
2026-04-18 17:22 60.23260 103.22210 37143 ft 480 kts 109°
2026-04-18 17:23 60.21332 103.35084 37144 ft 480 kts 109°
2026-04-18 17:23 60.19390 103.47941 37138 ft 480 kts 110°
2026-04-18 17:24 60.17441 103.60748 37151 ft 479 kts 110°
2026-04-18 17:24 60.15482 103.73524 37158 ft 478 kts 110°
2026-04-18 17:25 60.13513 103.86262 37158 ft 478 kts 110°
2026-04-18 17:25 60.11541 103.98930 37160 ft 478 kts 110°
2026-04-18 17:26 60.09547 104.11651 37143 ft 478 kts 110°
2026-04-18 17:26 60.07544 104.24333 37158 ft 477 kts 110°
2026-04-18 17:27 60.05526 104.37018 37166 ft 477 kts 111°
2026-04-18 17:27 60.02481 104.55987 37163 ft 477 kts 111°
2026-04-18 17:28 60.00436 104.68609 37158 ft 477 kts 111°
2026-04-18 17:28 59.98383 104.81198 37168 ft 476 kts 111°
2026-04-18 17:29 59.96323 104.93739 37167 ft 475 kts 111°
2026-04-18 17:29 59.94250 105.06266 37171 ft 475 kts 111°
2026-04-18 17:30 59.92178 105.18702 37174 ft 475 kts 112°
2026-04-18 17:30 59.90081 105.31206 37175 ft 475 kts 112°
2026-04-18 17:31 59.87972 105.43676 37176 ft 475 kts 112°
2026-04-18 17:31 59.85854 105.56110 37178 ft 474 kts 112°
2026-04-18 17:32 59.83725 105.68528 37178 ft 474 kts 112°
2026-04-18 17:32 59.81583 105.80930 37184 ft 474 kts 112°
2026-04-18 17:33 59.78355 105.99474 37180 ft 474 kts 113°
2026-04-18 17:34 59.76190 106.11813 37183 ft 473 kts 113°
2026-04-18 17:34 59.74014 106.24125 37189 ft 473 kts 113°
2026-04-18 17:35 59.71838 106.36355 37190 ft 474 kts 113°
2026-04-18 17:35 59.69636 106.48656 37185 ft 474 kts 114°
2026-04-18 17:36 59.67426 106.60926 37179 ft 473 kts 114°
2026-04-18 17:36 59.65206 106.73164 37187 ft 472 kts 114°
2026-04-18 17:37 59.62976 106.85386 37188 ft 472 kts 114°
2026-04-18 17:37 59.60734 106.97587 37182 ft 472 kts 114°
2026-04-18 17:38 59.58480 107.09780 37183 ft 472 kts 114°
2026-04-18 17:38 59.56214 107.21954 37183 ft 472 kts 115°
2026-04-18 17:39 59.53957 107.34010 37176 ft 471 kts 115°
2026-04-18 17:39 59.51676 107.46120 37181 ft 471 kts 115°
2026-04-18 17:40 59.49382 107.58219 37178 ft 471 kts 115°
2026-04-18 17:40 59.47468 107.68255 37171 ft 471 kts 115°
2026-04-18 17:41 59.44781 107.82263 37167 ft 471 kts 115°
2026-04-18 17:41 59.42839 107.92323 37170 ft 470 kts 115°
2026-04-18 17:42 59.40512 108.04310 37172 ft 470 kts 115°
2026-04-18 17:42 59.38190 108.16198 37169 ft 470 kts 116°
2026-04-18 17:43 59.35844 108.28139 37169 ft 469 kts 116°
2026-04-18 17:43 59.33484 108.40075 37160 ft 469 kts 116°
2026-04-18 17:44 59.31125 108.51947 37176 ft 467 kts 116°
2026-04-18 17:44 59.28756 108.63785 37166 ft 467 kts 116°
2026-04-18 17:45 59.26376 108.75612 37176 ft 467 kts 116°
2026-04-18 17:45 59.23988 108.87409 37163 ft 467 kts 116°
2026-04-18 17:46 59.21589 108.99190 37167 ft 467 kts 116°
2026-04-18 17:46 59.19179 109.10955 37163 ft 467 kts 116°
2026-04-18 17:47 59.16760 109.22700 37165 ft 467 kts 117°
2026-04-18 17:47 59.14347 109.34347 37173 ft 466 kts 117°
2026-04-18 17:48 59.11907 109.46056 37166 ft 466 kts 117°
2026-04-18 17:48 59.09456 109.57751 37162 ft 466 kts 117°
2026-04-18 17:49 59.07000 109.69407 37160 ft 465 kts 117°
2026-04-18 17:49 59.04536 109.81030 37160 ft 465 kts 117°
2026-04-18 17:50 59.02061 109.92642 37160 ft 465 kts 117°
2026-04-18 17:50 58.99574 110.04239 37157 ft 465 kts 118°
2026-04-18 17:51 58.97080 110.15810 37154 ft 465 kts 118°
2026-04-18 17:51 58.94590 110.27295 37156 ft 465 kts 118°
2026-04-18 17:52 58.92072 110.38849 37158 ft 466 kts 118°
2026-04-18 17:52 58.89546 110.50375 37149 ft 465 kts 118°
2026-04-18 17:53 58.87006 110.61895 37152 ft 465 kts 118°
2026-04-18 17:53 58.84461 110.73383 37154 ft 466 kts 119°
2026-04-18 17:54 58.81895 110.84893 37349 ft 467 kts 119°
2026-04-18 17:54 58.80608 110.90647 37571 ft 466 kts 119°
2026-04-18 17:54 58.79320 110.96391 37770 ft 466 kts 118°
2026-04-18 17:54 58.78032 111.02116 37977 ft 466 kts 118°
2026-04-18 17:55 58.76739 111.07851 38161 ft 466 kts 118°
2026-04-18 17:55 58.75445 111.13570 38351 ft 466 kts 118°
2026-04-18 17:55 58.74147 111.19294 38536 ft 466 kts 118°
2026-04-18 17:55 58.72849 111.25003 38684 ft 466 kts 118°
2026-04-18 17:56 58.71543 111.30725 38773 ft 468 kts 118°
2026-04-18 17:56 58.70250 111.36377 38888 ft 468 kts 118°
2026-04-18 17:56 58.67624 111.47821 39137 ft 468 kts 118°
2026-04-18 17:57 58.63503 111.64803 39137 ft 466 kts 121°
2026-04-18 17:58 58.57818 111.87162 39131 ft 466 kts 121°
2026-04-18 17:59 58.53547 112.03916 39128 ft 466 kts 121°
2026-04-18 18:00 58.49277 112.20546 39124 ft 466 kts 121°
2026-04-18 18:01 58.43521 112.42768 39113 ft 467 kts 121°
2026-04-18 18:02 58.37724 112.64967 39110 ft 468 kts 121°
2026-04-18 18:02 58.33355 112.81557 39090 ft 467 kts 121°
2026-04-18 18:03 58.28754 112.97879 39076 ft 466 kts 126°
2026-04-18 18:04 58.23612 113.13607 39044 ft 466 kts 127°
2026-04-18 18:05 58.16791 113.34453 39017 ft 467 kts 126°
2026-04-18 18:05 58.13381 113.44929 39022 ft 467 kts 126°
2026-04-18 18:06 58.08240 113.60637 39022 ft 468 kts 126°
2026-04-18 18:07 58.04796 113.71095 39001 ft 468 kts 126°
2026-04-18 18:07 57.99645 113.86639 38998 ft 468 kts 126°
2026-04-18 18:08 57.96182 113.97033 38980 ft 468 kts 126°
2026-04-18 18:08 57.92720 114.07381 38978 ft 467 kts 126°
2026-04-18 18:09 57.89246 114.17720 38965 ft 467 kts 126°
2026-04-18 18:09 57.86364 114.28746 38962 ft 473 kts 116°
2026-04-18 18:10 57.84029 114.40315 38937 ft 474 kts 114°
2026-04-18 18:10 57.81792 114.51963 38937 ft 475 kts 114°
2026-04-18 18:11 57.79544 114.63610 38910 ft 474 kts 114°
2026-04-18 18:11 57.77270 114.75223 38912 ft 475 kts 114°
2026-04-18 18:12 57.74994 114.86727 38917 ft 475 kts 114°
2026-04-18 18:12 57.72688 114.98310 38871 ft 474 kts 114°
2026-04-18 18:13 57.70371 115.09882 38893 ft 475 kts 114°
2026-04-18 18:13 57.68042 115.21462 38878 ft 476 kts 114°
2026-04-18 18:14 57.65702 115.33033 38879 ft 476 kts 114°
2026-04-18 18:14 57.63367 115.44514 38873 ft 475 kts 115°
2026-04-18 18:15 57.61010 115.56033 38858 ft 475 kts 114°
2026-04-18 18:15 57.58638 115.67556 38878 ft 477 kts 115°
2026-04-18 18:16 57.56252 115.79088 38879 ft 477 kts 115°
2026-04-18 18:16 57.53856 115.90601 38883 ft 477 kts 115°
2026-04-18 18:17 57.51450 116.02094 38874 ft 476 kts 115°
2026-04-18 18:17 57.49033 116.13574 38878 ft 476 kts 114°
2026-04-18 18:18 57.46608 116.25032 38883 ft 476 kts 115°
2026-04-18 18:18 57.44171 116.36479 38886 ft 476 kts 115°
2026-04-18 18:19 57.41740 116.47835 38886 ft 476 kts 115°
2026-04-18 18:19 57.39219 116.59188 38889 ft 474 kts 120°
2026-04-18 18:20 57.35891 116.69669 38885 ft 471 kts 126°
2026-04-18 18:20 57.32334 116.79846 38888 ft 470 kts 127°
2026-04-18 18:21 57.28727 116.89942 38901 ft 470 kts 127°
2026-04-18 18:21 57.25119 117.00029 38906 ft 470 kts 127°
2026-04-18 18:22 57.21537 117.10048 38891 ft 470 kts 127°
2026-04-18 18:22 57.17920 117.20135 38911 ft 472 kts 127°
2026-04-18 18:23 57.14289 117.30222 38920 ft 472 kts 127°
2026-04-18 18:23 57.10646 117.40299 38920 ft 473 kts 127°
2026-04-18 18:24 57.06999 117.50347 38928 ft 472 kts 127°
2026-04-18 18:24 57.03339 117.60386 38922 ft 473 kts 127°
2026-04-18 18:25 56.99665 117.70424 38937 ft 474 kts 127°
2026-04-18 18:25 56.95981 117.80448 38937 ft 474 kts 127°
2026-04-18 18:26 56.92289 117.90446 38944 ft 474 kts 127°
2026-04-18 18:26 56.88586 118.00430 38947 ft 474 kts 127°
2026-04-18 18:27 56.84898 118.10338 38955 ft 474 kts 127°
2026-04-18 18:27 56.81180 118.20286 38956 ft 474 kts 128°
2026-04-18 18:28 56.77457 118.30207 38963 ft 474 kts 128°
2026-04-18 18:28 56.73725 118.40111 38962 ft 474 kts 128°
2026-04-18 18:29 56.69986 118.49994 38953 ft 474 kts 128°
2026-04-18 18:29 56.66231 118.59874 38970 ft 475 kts 128°
2026-04-18 18:30 56.62473 118.69728 38981 ft 475 kts 128°
2026-04-18 18:30 56.59339 118.77914 38991 ft 475 kts 128°
2026-04-18 18:31 56.55566 118.87732 38985 ft 475 kts 128°
2026-04-18 18:31 56.51778 118.97547 39000 ft 475 kts 128°
2026-04-18 18:32 56.47981 119.07348 38997 ft 475 kts 128°
2026-04-18 18:32 56.44176 119.17129 39008 ft 475 kts 128°
2026-04-18 18:33 56.40366 119.26887 39010 ft 476 kts 128°
2026-04-18 18:33 56.36545 119.36631 39021 ft 475 kts 128°
2026-04-18 18:34 56.32718 119.46350 39013 ft 475 kts 128°
2026-04-18 18:34 56.28881 119.56053 39024 ft 476 kts 128°
2026-04-18 18:35 56.25054 119.65698 39021 ft 476 kts 128°
2026-04-18 18:35 56.21204 119.75362 39022 ft 476 kts 129°
2026-04-18 18:36 56.17341 119.85020 39019 ft 476 kts 128°
2026-04-18 18:36 56.13468 119.94665 39019 ft 477 kts 128°
2026-04-18 18:37 56.09582 120.04302 39029 ft 477 kts 129°
2026-04-18 18:37 56.05693 120.13910 39030 ft 477 kts 129°
2026-04-18 18:38 56.01793 120.23507 39032 ft 477 kts 129°
2026-04-18 18:38 55.97881 120.33093 39034 ft 477 kts 128°
2026-04-18 18:39 55.93987 120.42601 39035 ft 478 kts 128°
2026-04-18 18:39 55.90057 120.52163 39032 ft 478 kts 129°
2026-04-18 18:40 55.86123 120.61703 39033 ft 478 kts 129°
2026-04-18 18:40 55.82181 120.71231 39030 ft 478 kts 129°
2026-04-18 18:41 55.78234 120.80735 39038 ft 478 kts 129°
2026-04-18 18:41 55.74274 120.90232 39046 ft 478 kts 129°
2026-04-18 18:42 55.70305 120.99713 39043 ft 478 kts 129°
2026-04-18 18:42 55.66332 121.09170 39049 ft 478 kts 129°
2026-04-18 18:43 55.60356 121.23318 39053 ft 478 kts 129°
2026-04-18 18:44 55.56371 121.32713 39053 ft 478 kts 129°
2026-04-18 18:44 55.52376 121.42095 39055 ft 478 kts 129°
2026-04-18 18:45 55.48373 121.51458 39056 ft 478 kts 129°
2026-04-18 18:45 55.44364 121.60800 39058 ft 478 kts 129°
2026-04-18 18:46 55.40338 121.70151 39049 ft 479 kts 129°
2026-04-18 18:46 55.36309 121.79471 39056 ft 479 kts 129°
2026-04-18 18:47 55.32290 121.88732 39063 ft 479 kts 129°
2026-04-18 18:47 55.28237 121.98035 39052 ft 479 kts 129°
2026-04-18 18:48 55.24179 122.07317 39070 ft 480 kts 129°
2026-04-18 18:48 55.20103 122.16606 39070 ft 480 kts 129°
2026-04-18 18:49 55.16021 122.25874 39076 ft 480 kts 130°
2026-04-18 18:49 55.11933 122.35099 39077 ft 480 kts 130°
2026-04-18 18:50 55.07851 122.44271 39088 ft 482 kts 130°
2026-04-18 18:50 55.03729 122.53499 39086 ft 482 kts 130°
2026-04-18 18:51 54.99595 122.62720 39081 ft 482 kts 130°
2026-04-18 18:51 54.95455 122.71922 39094 ft 482 kts 130°
2026-04-18 18:52 54.91310 122.81099 39095 ft 483 kts 131°
2026-04-18 18:52 54.87133 122.90314 39103 ft 486 kts 131°
2026-04-18 18:53 54.82938 122.99530 39102 ft 486 kts 131°
2026-04-18 18:53 54.78739 123.08724 39108 ft 486 kts 131°
2026-04-18 18:54 54.74539 123.17882 39107 ft 486 kts 131°
2026-04-18 18:54 54.70309 123.27052 39112 ft 488 kts 131°
2026-04-18 18:55 54.66059 123.36226 39106 ft 489 kts 131°
2026-04-18 18:55 54.61830 123.45322 39106 ft 489 kts 131°
2026-04-18 18:56 54.57562 123.54473 39101 ft 489 kts 131°
2026-04-18 18:56 54.53294 123.63589 39102 ft 489 kts 131°
2026-04-18 18:57 54.49013 123.72697 39105 ft 489 kts 131°
2026-04-18 18:57 54.44730 123.81776 39105 ft 489 kts 132°
2026-04-18 18:58 54.40437 123.90845 39105 ft 489 kts 132°
2026-04-18 18:58 54.36135 123.99898 39108 ft 490 kts 132°
2026-04-18 18:59 54.31838 124.08905 39100 ft 492 kts 132°
2026-04-18 18:59 54.27497 124.17975 39098 ft 492 kts 132°
2026-04-18 19:00 54.23156 124.27012 39103 ft 492 kts 132°
2026-04-18 19:00 54.18804 124.36035 39102 ft 492 kts 132°
2026-04-18 19:01 54.14429 124.45074 39110 ft 494 kts 132°
2026-04-18 19:01 54.10044 124.54104 39108 ft 494 kts 132°
2026-04-18 19:02 54.05646 124.63095 39113 ft 494 kts 132°
2026-04-18 19:02 54.01250 124.71995 39110 ft 494 kts 132°
2026-04-18 19:03 53.96813 124.80939 39115 ft 496 kts 132°
2026-04-18 19:03 53.92357 124.89896 39116 ft 496 kts 132°
2026-04-18 19:04 53.85657 125.03311 39121 ft 496 kts 133°
2026-04-18 19:04 53.81185 125.12233 39121 ft 497 kts 132°
2026-04-18 19:05 53.74466 125.25640 39124 ft 498 kts 132°
2026-04-18 19:06 53.69982 125.34555 39124 ft 498 kts 132°
2026-04-18 19:06 53.63226 125.47919 39122 ft 499 kts 132°
2026-04-18 19:07 53.58737 125.56757 39109 ft 500 kts 133°
2026-04-18 19:07 53.54220 125.65621 39114 ft 499 kts 133°
2026-04-18 19:08 53.49690 125.74476 39112 ft 499 kts 133°
2026-04-18 19:08 53.44760 125.82579 39121 ft 495 kts 143°
2026-04-18 19:09 53.39412 125.89892 39115 ft 496 kts 144°
2026-04-18 19:09 53.33976 125.97051 39111 ft 496 kts 145°
2026-04-18 19:10 53.28545 126.04169 39107 ft 496 kts 145°
2026-04-18 19:10 53.23107 126.11308 39110 ft 497 kts 145°
2026-04-18 19:11 53.17698 126.18404 39109 ft 498 kts 145°
2026-04-18 19:11 53.12236 126.25548 39116 ft 498 kts 145°
2026-04-18 19:12 53.06778 126.32660 39109 ft 498 kts 145°
2026-04-18 19:12 53.01311 126.39762 39107 ft 498 kts 145°
2026-04-18 19:13 52.95835 126.46851 39103 ft 500 kts 145°
2026-04-18 19:13 52.90341 126.53939 39108 ft 499 kts 145°
2026-04-18 19:14 52.84888 126.60954 39102 ft 499 kts 145°
2026-04-18 19:14 52.79402 126.67986 39100 ft 499 kts 145°
2026-04-18 19:15 52.73897 126.75019 39106 ft 501 kts 145°
2026-04-18 19:15 52.68381 126.82043 39108 ft 501 kts 145°
2026-04-18 19:16 52.62863 126.89048 39100 ft 501 kts 146°
2026-04-18 19:16 52.57340 126.96037 39100 ft 501 kts 146°
2026-04-18 19:17 52.51816 127.03004 39106 ft 501 kts 146°
2026-04-18 19:17 52.46175 127.09654 39106 ft 496 kts 155°
2026-04-18 19:18 52.43066 127.12006 39072 ft 489 kts 166°
2026-04-18 19:18 52.39803 127.13369 39097 ft 480 kts 177°
2026-04-18 19:18 52.33192 127.14279 39102 ft 476 kts 183°
2026-04-18 19:19 52.27705 127.14572 39096 ft 475 kts 184°
2026-04-18 19:19 52.19992 127.14911 39098 ft 477 kts 184°
2026-04-18 19:20 52.13366 127.15271 39091 ft 477 kts 184°
2026-04-18 19:20 52.07817 127.15605 39092 ft 476 kts 184°
2026-04-18 19:21 52.01205 127.16014 39089 ft 475 kts 184°
2026-04-18 19:21 51.94628 127.16417 39090 ft 475 kts 184°
2026-04-18 19:22 51.88027 127.16817 39090 ft 476 kts 184°
2026-04-18 19:22 51.81391 127.17216 39041 ft 476 kts 184°
2026-04-18 19:23 51.78109 127.17418 38730 ft 472 kts 184°
2026-04-18 19:23 51.74816 127.17617 37843 ft 476 kts 185°
2026-04-18 19:23 51.71485 127.17947 36947 ft 487 kts 177°
2026-04-18 19:23 51.68133 127.19159 36164 ft 495 kts 173°
2026-04-18 19:24 51.64779 127.20563 35471 ft 497 kts 172°
2026-04-18 19:24 51.61449 127.22011 34923 ft 495 kts 172°
2026-04-18 19:24 51.58145 127.23568 34287 ft 496 kts 171°
2026-04-18 19:24 51.54827 127.25205 33329 ft 501 kts 171°
2026-04-18 19:25 51.51481 127.26868 32364 ft 506 kts 171°
2026-04-18 19:25 51.48102 127.28540 31632 ft 505 kts 170°
2026-04-18 19:25 51.44771 127.30180 31140 ft 497 kts 170°
2026-04-18 19:25 51.41474 127.31781 30525 ft 494 kts 170°
2026-04-18 19:26 51.38186 127.33344 29665 ft 494 kts 170°
2026-04-18 19:26 51.34875 127.34899 28755 ft 495 kts 169°
2026-04-18 19:26 51.31620 127.36422 27892 ft 495 kts 169°
2026-04-18 19:26 51.28314 127.37968 27039 ft 495 kts 168°
2026-04-18 19:27 51.25014 127.39509 26211 ft 494 kts 168°
2026-04-18 19:27 51.21721 127.41050 25400 ft 492 kts 168°
2026-04-18 19:27 51.18425 127.42593 24619 ft 491 kts 167°
2026-04-18 19:27 51.15152 127.44125 23859 ft 489 kts 167°
2026-04-18 19:28 51.11900 127.45646 22983 ft 486 kts 167°
2026-04-18 19:28 51.08673 127.47156 22116 ft 482 kts 167°
2026-04-18 19:28 51.05463 127.48653 21269 ft 478 kts 166°
2026-04-18 19:28 51.02290 127.50129 20443 ft 473 kts 166°
2026-04-18 19:29 50.99145 127.51589 19643 ft 469 kts 166°
2026-04-18 19:29 50.96031 127.53031 18859 ft 464 kts 166°
2026-04-18 19:29 50.92943 127.54461 18053 ft 460 kts 165°
2026-04-18 19:29 50.89991 127.56329 17187 ft 457 kts 155°
2026-04-18 19:30 50.87160 127.58584 16353 ft 453 kts 153°
2026-04-18 19:30 50.84451 127.60941 15552 ft 448 kts 152°
2026-04-18 19:30 50.81734 127.63429 14737 ft 443 kts 150°
2026-04-18 19:30 50.79122 127.65872 13966 ft 437 kts 150°
2026-04-18 19:31 50.76552 127.68286 13101 ft 422 kts 150°
2026-04-18 19:31 50.74066 127.70610 12254 ft 408 kts 150°
2026-04-18 19:31 50.71661 127.72842 11412 ft 395 kts 150°
2026-04-18 19:31 50.69336 127.74985 10624 ft 383 kts 150°
2026-04-18 19:32 50.67061 127.77073 9823 ft 372 kts 150°
2026-04-18 19:32 50.64856 127.79090 8943 ft 361 kts 150°
2026-04-18 19:32 50.62725 127.81036 8339 ft 345 kts 150°
2026-04-18 19:32 50.60714 127.82869 8074 ft 321 kts 150°
2026-04-18 19:33 50.58841 127.84576 7828 ft 304 kts 150°
2026-04-18 19:33 50.57016 127.86217 7373 ft 301 kts 153°
2026-04-18 19:33 50.55048 127.87230 6892 ft 297 kts 173°
2026-04-18 19:33 50.53009 127.87034 6410 ft 294 kts 197°
2026-04-18 19:34 50.51195 127.85624 5908 ft 291 kts 213°
2026-04-18 19:34 50.49579 127.83734 5410 ft 289 kts 219°
2026-04-18 19:34 50.48090 127.81622 4905 ft 287 kts 223°
2026-04-18 19:34 50.46667 127.79434 4410 ft 286 kts 224°
2026-04-18 19:35 50.45260 127.77237 3963 ft 283 kts 223°
2026-04-18 19:35 50.43901 127.75144 3704 ft 273 kts 222°
2026-04-18 19:35 50.42557 127.73115 3477 ft 264 kts 220°
2026-04-18 19:35 50.41234 127.71160 3239 ft 259 kts 220°
2026-04-18 19:36 50.39915 127.69242 3046 ft 258 kts 219°
2026-04-18 19:36 50.38589 127.67334 3017 ft 258 kts 219°
2026-04-18 19:36 50.37260 127.65430 3017 ft 259 kts 219°
2026-04-18 19:36 50.35928 127.63526 3015 ft 259 kts 219°
2026-04-18 19:37 50.34479 127.61899 3016 ft 256 kts 208°
2026-04-18 19:37 50.32938 127.60517 3015 ft 255 kts 205°
2026-04-18 19:37 50.31369 127.59224 3013 ft 256 kts 207°
2026-04-18 19:37 50.30338 127.58056 3014 ft 259 kts 219°
2026-04-18 19:38 50.29640 127.56827 3011 ft 259 kts 232°
2026-04-18 19:38 50.28895 127.54348 3003 ft 245 kts 249°
2026-04-18 19:38 50.28465 127.51850 2999 ft 230 kts 256°
2026-04-18 19:38 50.28334 127.49432 2987 ft 216 kts 274°
2026-04-18 19:39 50.28682 127.47297 3005 ft 197 kts 296°
2026-04-18 19:39 50.29497 127.45726 2972 ft 180 kts 327°
2026-04-18 19:39 50.30622 127.45031 2959 ft 171 kts 357°
2026-04-18 19:39 50.31767 127.44737 2717 ft 165 kts 351°
2026-04-18 19:40 50.32906 127.44465 2221 ft 166 kts 357°
2026-04-18 19:40 50.34043 127.44206 2005 ft 165 kts 355°
2026-04-18 19:40 50.34091 127.44195 2004 ft 165 kts 355°
2026-04-18 19:42 50.35045 127.43943 1960 ft 154 kts 354°
2026-04-18 19:42 50.36082 127.43659 1820 ft 149 kts 355°
2026-04-18 19:42 50.37099 127.43442 1467 ft 145 kts 354°
2026-04-18 19:42 50.38049 127.43042 1277 ft 139 kts 347°
2026-04-18 19:43 50.38983 127.42760 1155 ft 136 kts 349°
2026-04-18 19:43 50.39905 127.42443 992 ft 135 kts 350°
2026-04-18 19:43 50.40799 127.42167 814 ft 133 kts 347°
2026-04-18 19:43 50.41698 127.41874 664 ft 127 kts 348°
2026-04-18 19:44 50.41858 127.41821 660 ft 118 kts 348°
2026-04-18 19:44 50.42590 127.41585 685 ft 131 kts 349°
2026-04-18 19:44 50.39869 127.42466 1035 ft 147 kts 351°
2026-04-18 19:45 50.39084 127.42735 1267 ft 836 kts 348°
2026-04-18 19:45 50.38938 127.42770 1177 ft 140 kts 347°
2026-04-18 19:45 50.39854 127.42479 976 ft 140 kts 350°
2026-04-18 19:45 50.40392 127.42305 882 ft 143 kts 348°
2026-04-18 19:46 50.41342 127.41989 703 ft 135 kts 348°
2026-04-18 19:46 50.42081 127.41749 663 ft 120 kts 348°
2026-04-18 19:46 50.42558 127.41597 661 ft 64 kts 347°
2026-04-18 19:46 50.42893 127.41465 660 ft 15 kts 303°
2026-04-18 19:47 50.42865 127.41391 661 ft 8 kts 216°
2026-04-18 19:47 50.42806 127.41321 661 ft 14 kts 218°
2026-04-18 19:47 50.42728 127.41225 661 ft 14 kts 218°
2026-04-18 19:47 50.42650 127.41127 661 ft 15 kts 218°
2026-04-18 19:48 50.42564 127.41023 660 ft 16 kts 217°
2026-04-18 19:48 50.42464 127.40961 660 ft 15 kts 199°
2026-04-18 19:48 50.42402 127.40926 660 ft 8 kts 199°
2026-04-18 19:48 50.42353 127.40910 660 ft 7 kts 196°
2026-04-18 19:49 50.42309 127.40881 661 ft 7 kts 186°
2026-04-18 19:49 50.42265 127.40892 661 ft 7 kts 166°
2026-04-18 19:49 50.42217 127.40913 661 ft 8 kts 153°
2026-04-18 19:49 50.42191 127.40981 661 ft 7 kts 92°
2026-04-18 19:50 50.42198 127.41039 660 ft 4 kts 65°
2026-04-18 19:50 50.42239 127.41056 660 ft 9 kts 346°
2026-04-18 19:50 50.42307 127.41027 660 ft 9 kts 345°
2026-04-18 19:50 50.42352 127.40987 660 ft 6 kts 293°
2026-04-18 19:51 50.42348 127.40946 660 ft 2 kts 256°
2026-04-18 19:51 50.42348 127.40945 660 ft 0 kts 256°